Metlakatla, AK

5:34 AM AKST on January 18, 2017 (GMT -0900)
Annette Island

Weather History for PANT - September, 2012

Change the Weather History Date:

Friday, September 14, 2012

  Actual Average Record
Temperature  
Mean Temperature 54 °F 54 °F  
Max Temperature 61 °F 60 °F 72 °F (1961)
Min Temperature 47 °F 49 °F 38 °F (1992)
Degree Days  
Heating Degree Days 11 11  
Month to date heating degree days 141 134  
Since 1 July heating degree days 599 535  
Cooling Degree Days 0    
Month to date cooling degree days 0  
Year to date cooling degree days 7  
Growing Degree Days 2 (Base 50)    
Moisture  
Dew Point 47 °F    
Average Humidity 0    
Maximum Humidity 0    
Minimum Humidity 0    
Precipitation  
Precipitation T in 0.33 in 2.31 in (1981)
Month to date precipitation 7.25 4.27  
Year to date precipitation 72.16 59.18  
Snow  
Snow 0.00 in 0.00 in 0.00 in (2015)
Month to date snowfall 0.0 0.0  
Since 1 July snowfall 0.0 0.0  
Since 1 September snowfall 0.0 0.0  
Snow Depth 0.00 in    
Sea Level Pressure  
Sea Level Pressure 30.23 in    
Wind  
Wind Speed 2 mph (West)    
Max Wind Speed 7 mph    
Max Gust Speed 10 mph    
Visibility 10 miles    
Events      
T = Trace of Precipitation, MM = Missing Value Source: NWS Daily Summary

Daily Weather History Graph

Daily Weather History Graph

Search for Another Location

Airport or City:

Trip Planner

Search our weather history database for the weather conditions in past years. The results will help you decide how hot, cold, wet, or windy it might be!

Date:

Astronomy

Sep. 14, 2012 Rise Set
Actual Time 6:18 AM AKDT 7:03 PM AKDT
Civil Twilight 5:41 AM AKDT 7:40 PM AKDT
Nautical Twilight 4:56 AM AKDT 8:24 PM AKDT
Astronomical Twilight 4:08 AM AKDT 9:12 PM AKDT
Moon 4:43 AM AKDT (9/14) 6:04 PM AKDT (9/14)
Length of Visible Light 13h 59m
Length of Day
12h 45m
Waning Crescent, 2% of the Moon is Illuminated
Sep 14
Waning Crescent
Sep 15
New
Sep 22
First Quarter
Sep 29
Full
Oct 7
Last Quarter

Hourly Weather History & Observations

Time (AKDT) Temp. Windchill Dew Point Humidity Pressure Visibility Wind Dir Wind Speed Gust Speed Precip Events Conditions
12:53 AM 52.0 °F - 46.9 °F 83% 30.10 in 10.0 mi Variable 5.8 mph - N/A   Overcast
1:53 AM 52.0 °F - 46.9 °F 83% 30.12 in 10.0 mi South 4.6 mph - 0.00 in   Mostly Cloudy
2:53 AM 51.1 °F - 48.0 °F 89% 30.14 in 10.0 mi Calm Calm - N/A   Overcast
3:53 AM 51.1 °F - 46.9 °F 86% 30.14 in 10.0 mi Calm Calm - N/A   Scattered Clouds
4:53 AM 48.0 °F - 46.0 °F 93% 30.16 in 10.0 mi Calm Calm - N/A   Partly Cloudy
5:53 AM 46.9 °F - 45.0 °F 93% 30.17 in 10.0 mi Calm Calm - N/A   Scattered Clouds
6:53 AM 50.0 °F - 46.9 °F 89% 30.19 in 10.0 mi SSE 3.5 mph - N/A   Partly Cloudy
7:53 AM 51.1 °F - 48.9 °F 92% 30.21 in 10.0 mi Calm Calm - N/A   Overcast
8:53 AM 54.0 °F - 48.9 °F 83% 30.22 in 10.0 mi West 4.6 mph - N/A   Overcast
9:53 AM 57.0 °F - 48.9 °F 74% 30.23 in 10.0 mi Calm Calm - N/A   Mostly Cloudy
10:53 AM 57.9 °F - 46.9 °F 67% 30.24 in 10.0 mi West 3.5 mph - N/A   Clear
11:53 AM 57.9 °F - 46.0 °F 65% 30.25 in 10.0 mi West 3.5 mph - N/A   Overcast
12:53 PM 57.9 °F - 46.9 °F 67% 30.26 in 10.0 mi Calm Calm - N/A   Overcast
1:53 PM 60.1 °F - 48.0 °F 64% 30.26 in 10.0 mi Calm Calm - N/A   Mostly Cloudy
2:53 PM 60.1 °F - 45.0 °F 57% 30.26 in 10.0 mi Calm Calm - N/A   Mostly Cloudy
3:53 PM 59.0 °F - 46.0 °F 62% 30.27 in 10.0 mi NW 4.6 mph - N/A   Overcast
4:53 PM 57.9 °F - 45.0 °F 62% 30.26 in 10.0 mi WNW 4.6 mph - N/A   Mostly Cloudy
6:53 PM 51.1 °F - 48.0 °F 89% 30.26 in 10.0 mi Calm Calm - N/A   Clear
7:53 PM 48.0 °F - 46.9 °F 96% 30.27 in 10.0 mi Calm Calm - N/A   Clear
8:53 PM 46.9 °F - 45.0 °F 93% 30.28 in 10.0 mi Calm Calm - N/A   Clear
9:53 PM 46.0 °F - 45.0 °F 96% 30.29 in 10.0 mi Calm Calm - N/A   Clear
10:53 PM 45.0 °F 43.5 °F 44.1 °F 97% 30.30 in 10.0 mi NNW 3.5 mph - N/A   Clear
11:53 PM 46.0 °F 43.9 °F 44.1 °F 93% 30.30 in 10.0 mi NW 4.6 mph - N/A   Clear